This demonstration page uses our WeatherBlox Daily Observations layout. Learn more.

Left ArrowRight Arrow

Hourly Observations for March 7, 2018

Temp ( °F °C ) Dew Point ( °F °C ) Humidity (%) Winds ( mph kmh ) Pressure ( in mb ) Visibility ( mi km ) Precip ( " mm )
12:15 am 00:15 Cloudy 34 1 34 1 100 100 N N/A 29.85 1011 7 11 N/A
12:35 am 00:35 Cloudy 34 1 34 1 100 100 ESE 6 9 29.85 1011 7 11 N/A
12:55 am 00:55 Cloudy with Mist and Fog 34 1 34 1 100 100 E 6 9 29.85 1011 4 6 N/A
1:15 am 01:15 Cloudy with Mist and Fog 34 1 34 1 100 100 ESE 7 11 29.85 1011 4 6 N/A
1:35 am 01:35 Cloudy with Mist and Fog 34 1 34 1 100 100 ESE 5 7 29.85 1011 4 6 N/A
1:55 am 01:55 Cloudy with Mist and Fog 34 1 34 1 100 100 ENE 5 7 29.85 1011 4 6 N/A
2:15 am 02:15 Cloudy with Mist and Fog 34 1 34 1 100 100 NE 3 6 29.83 1010 4 6 N/A
2:35 am 02:35 Cloudy with Mist and Fog 34 1 34 1 100 100 NE 5 7 29.83 1010 4 6 N/A
2:55 am 02:55 Cloudy with Mist and Fog 34 1 34 1 100 100 NE 5 7 29.83 1010 4 6 N/A
3:15 am 03:15 Cloudy with Mist and Fog 34 1 34 1 100 100 NE 5 7 29.80 1009 4 6 N/A
3:35 am 03:35 Cloudy with Mist and Fog 34 1 34 1 100 100 NE 5 7 29.80 1009 3 5 N/A
3:55 am 03:55 Cloudy with Mist and Fog 34 1 34 1 100 100 NE 5 7 29.80 1009 3 5 N/A
4:15 am 04:15 Cloudy with Mist and Fog 34 1 34 1 100 100 NE 5 7 29.80 1009 3 5 N/A
4:35 am 04:35 Cloudy with Mist and Fog 34 1 34 1 100 100 NE 6 9 29.80 1009 4 6 N/A
4:55 am 04:55 Cloudy with Mist and Fog 34 1 34 1 100 100 NE 7 11 29.77 1008 4 6 N/A
5:15 am 05:15 Cloudy with Mist and Fog 34 1 34 1 100 100 NE 7 11 29.77 1008 4 6 N/A
5:35 am 05:35 Cloudy 34 1 34 1 100 100 NE 7 11 29.77 1008 7 11 N/A
5:55 am 05:55 Cloudy 34 1 34 1 100 100 N 5 7 29.77 1008 10 16 N/A
6:15 am 06:15 Cloudy 34 1 34 1 100 100 NNW 5 7 29.77 1008 7 11 N/A
6:35 am 06:35 Cloudy 34 1 34 1 100 100 NNE 3 6 29.77 1008 7 11 N/A
6:55 am 06:55 Cloudy 34 1 34 1 100 100 NE 5 7 29.77 1008 7 11 N/A
7:15 am 07:15 Cloudy 34 1 34 1 100 100 NNE 6 9 29.74 1007 7 11 N/A
7:35 am 07:35 Cloudy 34 1 34 1 100 100 N 6 9 29.77 1008 7 11 N/A
7:55 am 07:55 Cloudy 34 1 34 1 100 100 N 7 11 29.77 1008 7 11 N/A
8:15 am 08:15 Cloudy 34 1 34 1 100 100 N 6 9 29.74 1007 7 11 N/A
8:35 am 08:35 Cloudy with Mist and Fog 34 1 34 1 100 100 N 8 13 29.77 1008 5 8 N/A
8:55 am 08:55 Cloudy with Mist and Fog 34 1 34 1 100 100 NNE 9 15 29.74 1007 5 8 N/A
9:15 am 09:15 Cloudy 36 2 36 2 100 100 NNE 6 9 29.74 1007 10 16 N/A
9:35 am 09:35 Cloudy with Drizzle 36 2 36 2 100 100 N 6 9 29.74 1007 10 16 N/A
9:55 am 09:55 Cloudy with Light Rain 36 2 36 2 100 100 N 9 15 29.74 1007 4 6 N/A
10:15 am 10:15 Cloudy with Light Rain 36 2 36 2 100 100 N 7 11 29.74 1007 7 11 0.01 0.25
10:35 am 10:35 Cloudy with Light Rain 36 2 36 2 100 100 N 7 11 29.74 1007 7 11 0.01 0.25
10:55 am 10:55 Cloudy with Light Rain 37 3 37 3 100 100 NNW 10 17 29.74 1007 7 11 0.02 0.51
11:15 am 11:15 Cloudy 37 3 37 3 100 100 NNW 7 11 29.74 1007 10 16 N/A
11:35 am 11:35 Cloudy 39 4 37 3 93 93 NNW 13 20 29.74 1007 10 16 N/A
11:55 am 11:55 Cloudy 41 5 37 3 87 87 NNW 13 20 29.74 1007 10 16 N/A
12:15 pm 12:15 Cloudy 41 5 37 3 87 87 NW 16 26 29.74 1007 10 16 N/A
12:35 pm 12:35 Cloudy 41 5 37 3 87 87 NW 16 26 29.74 1007 10 16 N/A
12:55 pm 12:55 Cloudy 43 6 37 3 81 81 NNW 14 22 29.71 1006 10 16 N/A
1:15 pm 13:15 Cloudy 43 6 37 3 81 81 NNW 14 22 29.71 1006 10 16 N/A
1:35 pm 13:35 Cloudy 46 8 39 4 76 76 NW 16 26 29.68 1005 10 16 N/A
1:55 pm 13:55 Mostly Cloudy 46 8 37 3 71 71 NW 22 35 29.68 1005 10 16 N/A
2:15 pm 14:15 Mostly Cloudy 46 8 36 2 66 66 NW 21 33 29.68 1005 10 16 N/A
2:35 pm 14:35 Cloudy 46 8 36 2 66 66 NNW 22 35 29.68 1005 10 16 N/A
2:55 pm 14:55 Cloudy 46 8 36 2 66 66 NW 17 28 29.68 1005 10 16 N/A
3:15 pm 15:15 Mostly Cloudy 48 9 32 undefined 54 54 NW 24 39 29.68 1005 10 16 N/A
3:35 pm 15:35 Partly Cloudy 48 9 32 undefined 54 54 NW 23 37 29.71 1006 10 16 N/A
3:55 pm 15:55 Cloudy 46 8 32 undefined 57 57 NNW 20 31 29.71 1006 10 16 N/A
4:15 pm 16:15 Cloudy 46 8 32 undefined 57 57 NW 14 22 29.71 1006 10 16 N/A
4:35 pm 16:35 Cloudy 46 8 32 undefined 57 57 N 12 19 29.71 1006 10 16 N/A
4:55 pm 16:55 Cloudy with Light Rain 45 7 32 undefined 61 61 NW 22 35 29.74 1007 10 16 N/A
5:15 pm 17:15 Cloudy 45 7 36 2 71 71 WNW 18 30 29.74 1007 10 16 N/A
5:35 pm 17:35 Cloudy 45 7 34 1 66 66 NW 18 30 29.80 1009 10 16 N/A
5:55 pm 17:55 Mostly Cloudy 43 6 34 1 71 71 NW 15 24 29.80 1009 10 16 N/A
6:15 pm 18:15 Mostly Cloudy 43 6 32 undefined 66 66 WNW 20 31 29.80 1009 10 16 N/A
6:35 pm 18:35 Mostly Cloudy 43 6 30 -1 61 61 WNW 20 31 29.83 1010 10 16 N/A
6:55 pm 18:55 Partly Cloudy 41 5 30 -1 66 66 NW 17 28 29.83 1010 10 16 N/A
7:15 pm 19:15 Partly Cloudy 41 5 30 -1 66 66 NW 17 28 29.83 1010 10 16 N/A
7:35 pm 19:35 Clear 41 5 30 -1 66 66 NW 22 35 29.85 1011 10 16 N/A
7:55 pm 19:55 Clear 41 5 28 -2 61 61 NW 17 28 29.85 1011 10 16 N/A
8:15 pm 20:15 Clear 41 5 28 -2 61 61 NW 18 30 29.85 1011 10 16 N/A
8:35 pm 20:35 Clear 41 5 28 -2 61 61 NW 17 28 29.85 1011 10 16 N/A
8:55 pm 20:55 Clear 41 5 28 -2 61 61 WNW 23 37 29.85 1011 10 16 N/A
9:15 pm 21:15 Clear 41 5 28 -2 61 61 WNW 20 31 29.88 1012 10 16 N/A
9:35 pm 21:35 Clear 39 4 30 -1 70 70 NW 16 26 29.88 1012 10 16 N/A
9:55 pm 21:55 Partly Cloudy 39 4 30 -1 70 70 NW 15 24 29.91 1013 10 16 N/A
10:15 pm 22:15 Partly Cloudy 39 4 30 -1 70 70 WNW 15 24 29.91 1013 10 16 N/A
10:35 pm 22:35 Partly Cloudy 37 3 30 -1 75 75 WNW 17 28 29.91 1013 10 16 N/A
10:55 pm 22:55 Clear 37 3 28 -2 70 70 WNW 17 28 29.91 1013 10 16 N/A
11:15 pm 23:15 Clear 37 3 28 -2 70 70 NW 16 26 29.91 1013 10 16 N/A
11:35 pm 23:35 Clear 36 2 28 -2 75 75 NW 17 28 29.88 1012 10 16 N/A
11:55 pm 23:55 Clear 36 2 28 -2 75 75 NW 18 30 29.88 1012 10 16 N/A

Powered by AerisWeather